Location: *
(49.9853°N, 3.5569°E)
Time: 07:06:52
(UTC+00:00)

Cosmos 1602 Rocket - Pass Details

Date: 22 September 2019
Orbit: 603 x 634 km, 82.5° (Epoch: 21 October)

Event Time Altitude Azimuth Distance (km) Brightness Sun altitude
Rises 20:21:23 0° 345° (NNW) 2,887 7.7 -24.7°
Reaches altitude 10° 20:23:40 10° 340° (NNW) 1,973 6.8 -25.0°
Maximum altitude 20:27:52 50° 266° (W) 779 4.2 -25.5°
Enters shadow 20:28:32 45° 236° (SW) 828 4.2 -25.6°
